Flag for Poland Weather past 2 weeks in Rybnik, Poland

Now
52 °F

Sunny.


Feels Like: 47 °F
Forecast: 39 / 54 °F
Wind: 13 mph from Northwest

Location: Katowice Airport

Current Time: Apr 19, 2015 at 6:45:49 PM

Latest Report: Apr 19, 2015 at 6:00 PM


Visibility: 10 mi

Pressure: 30.07 "Hg

Humidity: 41%

Dew point: 28 °F

Location of RybnikLocation

Historic Weather in Rybnik — Graph

°F

Rybnik temperature yesterday

Maximum temperature yesterday: 43 °F (at 2:00 PM)
Minimum temperature yesterday: 32 °F (at 6:00 AM)
Average temperature yesterday: 38 °F

Past Weeks' High & Low Weather Summary

 TemperatureHumidityPressure
High68 °F (Apr 11, 2:30 PM)100% (Apr 4, 11:30 PM)30.48 "Hg (Apr 4, 11:30 PM)
Low28 °F (Apr 4, 11:30 PM)18% (Apr 9, 3:00 PM)29.83 "Hg (Apr 16, 2:30 AM)
Average46 °F66%30.15 "Hg
* Reported Apr 4 6:00 PM — Apr 19 6:00 PM, Rybnik, Weather by CustomWeather, © 2015

Note: Actual official high and low records may vary slightly from our data, if they occured in-between our weather recording intervals... More about our weather records

Advertising

Rybnik weather history for previous 24 hours

 ConditionsComfort  
Time TempWeatherWind HumidityBarometerVisibility
6:00 PM
Sun, Apr 19
52 °FSunny.13 mph41%30.07 "Hg10 mi
5:30 PM52 °FPassing clouds.14 mph38%30.07 "HgN/A
5:00 PM52 °FScattered clouds.12 mph41%30.07 "HgN/A
4:30 PM52 °FScattered clouds.15 mph41%30.07 "HgN/A
4:00 PM52 °FPartly sunny.17 mph41%30.07 "HgN/A
3:30 PM50 °FPartly sunny.16 mph43%30.09 "HgN/A
3:00 PM50 °FScattered clouds.16 mph47%30.09 "HgN/A
2:30 PM50 °FPartly sunny.14 mph47%30.09 "HgN/A
2:00 PM48 °FPartly sunny.12 mph50%30.12 "HgN/A
1:30 PM48 °FPartly sunny.12 mph50%30.12 "HgN/A
1:00 PM46 °FPartly sunny.12 mph53%30.12 "HgN/A
12:30 PM46 °FScattered clouds.13 mph53%30.12 "HgN/A
12:00 PM46 °FScattered clouds.13 mph53%30.12 "HgN/A
11:30 AM46 °FScattered clouds.14 mph53%30.12 "HgN/A
11:00 AM45 °FScattered clouds.12 mph57%30.12 "HgN/A
10:30 AM45 °FScattered clouds.10 mph57%30.12 "HgN/A
10:00 AM45 °FPassing clouds.10 mph61%30.15 "HgN/A
9:30 AM43 °FSunny.9 mph66%30.15 "Hg10 mi
9:00 AM41 °FPassing clouds.7 mph70%30.12 "HgN/A
8:30 AM39 °FPassing clouds.3 mph75%30.15 "HgN/A
8:00 AM36 °FPassing clouds.6 mph87%30.15 "HgN/A
7:30 AM34 °FSunny.5 mph93%30.15 "Hg10 mi
7:00 AM32 °FSunny.3 mph93%30.15 "Hg10 mi
6:30 AM32 °FClear.6 mph93%30.12 "Hg10 mi
6:00 AM32 °FClear.6 mph93%30.12 "Hg10 mi
5:30 AM34 °FClear.3 mph93%30.12 "Hg10 mi
5:00 AM36 °FClear.3 mph87%30.12 "Hg10 mi
4:30 AM36 °FClear.5 mph87%30.12 "Hg10 mi
4:00 AM36 °FClear.3 mph87%30.12 "Hg10 mi
3:30 AM37 °FClear.5 mph87%30.12 "Hg10 mi
3:00 AM37 °FPassing clouds.6 mph87%30.12 "HgN/A
2:30 AM37 °FPassing clouds.3 mph87%30.12 "HgN/A
2:00 AM37 °FPassing clouds.9 mph87%30.12 "HgN/A
1:30 AM37 °FSprinkles. Passing clouds.6 mph87%30.12 "HgN/A
1:00 AM37 °FPassing clouds.6 mph87%30.15 "HgN/A
12:30 AM39 °FSprinkles. Passing clouds.5 mph81%30.12 "HgN/A
12:00 AM39 °FSprinkles. Passing clouds.10 mph81%30.15 "HgN/A
11:00 PM
Sat, Apr 18
37 °FSprinkles. Passing clouds.8 mph87%30.12 "HgN/A
10:30 PM39 °FSprinkles. Passing clouds.10 mph81%30.12 "HgN/A
10:00 PM39 °FSprinkles. Passing clouds.7 mph81%30.12 "HgN/A
9:30 PM37 °FPassing clouds.6 mph93%30.12 "HgN/A
9:00 PM37 °FSprinkles. Passing clouds.5 mph87%30.12 "HgN/A
8:30 PM39 °FSprinkles. Scattered clouds.12 mph81%30.12 "HgN/A
8:00 PM41 °FScattered clouds.10 mph70%30.09 "HgN/A
7:30 PM41 °FPassing clouds.10 mph70%30.09 "HgN/A
7:00 PM39 °FPartly sunny.5 mph81%30.09 "HgN/A
6:30 PM39 °FPartly sunny.5 mph81%30.09 "HgN/A
6:00 PM39 °FPartly sunny.12 mph81%30.09 "HgN/A
Weather by CustomWeather, © 2015

See weather overviewHow to use our weather pages